Theta_e
332 330 329 329 326 328 327 322 304 314 310 300 301 306 300 307 307 306 305 306 303 309 310 312 310 311 307 307 309 309 310 307 310 300 301 319 331 338 337 337 336 333 333 339 342 344 346 348 348 348 347 347 347 347 346 346 345 343 342 342 341 340 340 341 339 336 335 336 338 338 337 337 336 335 335 335 335 336 337 337 337 338 338 338 338 337 339 338 336 335 335 334 335 335 336 336 337
330 330 330 328 323 330 319 321 312 305 305 300 303 305 303 306 306 305 304 307 308 308 308 310 310 312 312 312 310 310 312 318 316 317 323 329 332 336 338 338 337 333 334 338 341 341 344 346 348 347 347 347 347 347 346 345 345 343 342 341 341 340 341 341 339 338 337 337 337 337 337 336 335 334 334 335 336 336 335 335 335 335 338 339 338 338 338 340 339 338 336 335 334 334 334 335 335
331 331 328 323 319 322 319 321 303 302 300 298 303 303 307 304 304 306 311 311 312 312 311 311 312 312 311 311 307 308 304 323 321 321 320 330 329 331 337 338 338 336 335 333 336 338 341 343 347 348 347 347 347 346 346 345 345 343 342 341 341 341 340 338 339 336 335 335 338 337 337 336 333 332 334 334 335 334 334 334 334 340 339 339 337 336 338 339 340 338 336 335 334 334 334 334 334
332 332 321 319 312 323 316 313 307 302 299 301 300 307 307 306 305 309 312 312 310 311 311 310 307 314 311 306 310 313 314 315 323 325 323 326 329 333 337 337 338 337 335 332 334 337 338 342 344 347 348 347 347 346 346 345 344 343 341 341 340 340 339 339 339 337 336 334 334 335 335 336 335 334 335 335 333 333 334 334 335 338 338 337 336 336 336 337 339 339 337 335 334 333 333 334 333
327 324 323 318 318 316 317 311 307 305 299 304 300 306 307 307 307 309 310 310 309 310 310 311 310 313 314 311 315 309 309 319 324 326 324 330 335 335 337 337 336 336 333 330 334 336 339 342 343 344 346 346 346 346 346 346 345 344 342 341 340 339 338 339 340 340 337 335 334 335 335 336 336 336 336 335 332 331 332 333 335 336 336 336 335 335 335 335 338 340 337 335 334 333 333 332 332
324 321 322 321 314 322 316 307 304 302 304 307 305 305 307 308 308 309 309 310 312 311 313 309 310 310 309 309 315 312 319 313 322 329 331 329 334 337 338 338 336 335 334 332 334 338 339 341 343 344 345 345 345 345 345 346 344 344 342 340 340 339 338 339 342 341 339 336 334 334 334 334 333 336 336 334 332 333 332 332 333 334 336 335 335 335 334 334 337 339 338 335 335 334 332 332 332
319 317 318 326 320 323 306 303 303 304 306 310 308 307 308 308 309 309 309 310 311 313 313 311 314 314 307 313 317 322 324 322 322 326 332 333 335 338 338 336 336 335 335 336 337 338 339 341 343 344 344 344 344 344 343 345 344 344 343 341 339 339 339 342 342 339 338 338 335 334 335 335 335 336 335 333 331 332 333 331 332 333 335 334 334 334 334 334 336 338 338 337 335 334 333 331 331
324 317 316 308 306 310 305 304 303 305 307 311 311 309 310 310 310 309 309 309 307 308 309 313 313 309 310 319 309 322 327 331 332 334 334 334 336 337 337 336 334 334 335 337 338 338 343 340 342 343 344 344 343 343 344 344 345 344 343 342 340 339 339 339 339 338 338 338 335 333 334 333 335 335 334 332 333 333 333 333 332 333 334 334 334 334 333 334 334 335 336 336 336 335 334 333 332
319 314 323 313 303 308 301 302 304 309 309 311 310 313 316 311 311 310 308 310 310 311 309 311 311 306 310 307 312 320 323 332 334 335 334 334 335 336 336 335 333 334 336 337 340 338 338 339 341 342 342 344 344 343 342 344 345 344 344 343 340 339 340 339 339 338 337 338 337 335 334 335 336 335 333 333 334 332 332 332 332 333 333 332 333 334 333 333 334 334 335 335 335 335 334 333 332
314 313 305 309 309 300 301 302 302 306 308 311 310 311 311 312 311 312 309 310 309 311 311 313 311 309 309 307 313 320 321 331 334 333 334 335 336 335 335 335 335 334 335 340 340 338 338 342 339 340 341 342 344 344 344 345 344 345 344 343 341 339 339 339 338 337 337 337 338 337 335 333 335 334 334 334 334 333 332 332 333 332 331 332 333 334 334 333 333 333 333 334 334 335 335 334 333
308 312 319 306 299 296 297 299 302 307 308 311 311 313 312 311 311 311 311 311 311 309 311 312 310 310 311 314 319 326 326 330 332 331 334 335 335 333 334 335 335 335 334 340 341 340 339 338 342 338 340 340 341 343 343 345 345 344 344 344 342 340 339 339 338 338 336 337 338 338 336 334 335 333 332 333 333 332 331 333 333 333 333 332 332 332 333 333 333 333 333 334 333 333 334 334 333
307 306 312 300 298 297 298 298 302 304 308 311 309 312 311 312 312 309 311 309 309 309 310 312 309 313 309 312 318 322 325 328 331 333 334 335 334 334 334 335 335 335 337 338 340 340 338 339 339 341 337 338 338 340 341 343 344 344 344 343 343 341 339 338 338 338 337 338 338 337 337 335 335 335 334 338 338 334 332 333 334 333 332 332 331 331 332 332 332 333 333 334 333 332 333 333 333
308 311 302 299 299 300 300 299 300 303 305 308 310 313 313 312 309 311 311 312 310 309 310 312 317 313 307 312 320 323 321 326 332 333 334 334 334 334 334 335 335 335 336 336 338 340 340 338 338 339 337 334 335 337 338 341 343 344 344 343 343 343 341 339 338 338 338 337 338 341 338 336 336 336 336 337 337 336 337 338 338 334 332 333 332 330 331 331 332 332 333 333 333 333 332 332 333
310 311 308 298 303 299 298 298 301 299 301 308 313 314 314 311 311 312 311 310 310 309 314 314 317 312 312 317 318 319 320 328 331 333 333 333 334 335 335 335 335 335 336 336 336 340 339 338 338 338 337 335 336 334 333 336 340 344 343 343 343 344 343 342 341 340 339 341 340 340 340 338 337 339 339 337 337 337 336 334 336 335 332 333 333 332 332 332 332 331 332 333 333 333 332 331 331
311 314 306 304 300 300 301 297 298 300 300 306 312 312 312 314 313 312 312 310 311 315 315 318 318 312 305 314 313 317 322 329 332 333 333 334 335 334 335 335 335 335 335 335 336 337 339 339 338 338 337 335 335 334 334 334 335 339 341 341 342 342 342 341 340 339 339 339 339 338 339 339 338 338 338 335 334 335 334 332 332 335 332 332 332 332 332 332 332 331 332 332 333 333 333 332 331
317 310 306 300 297 298 299 299 301 300 300 306 312 314 312 313 314 312 313 315 311 317 316 310 318 312 317 320 316 323 328 330 333 333 333 333 333 334 334 333 333 333 333 333 334 335 337 338 338 338 338 336 335 333 333 334 330 333 338 339 340 340 340 338 337 336 335 335 334 335 335 334 334 334 335 333 332 333 334 329 330 334 334 332 333 332 332 332 332 332 332 332 332 333 333 333 332
316 314 300 298 296 297 298 298 300 297 303 305 312 312 309 310 314 315 315 317 313 312 313 314 312 318 323 325 327 328 329 330 330 331 332 331 331 330 330 329 330 331 333 332 332 334 335 336 336 337 338 337 335 335 332 333 333 331 333 334 335 335 336 336 334 330 329 328 329 329 331 333 332 333 332 332 330 330 327 326 328 332 335 334 333 332 332 332 332 332 332 332 332 333 333 334 332
313 302 298 296 298 297 300 300 302 304 303 306 311 311 311 309 311 313 315 314 314 313 312 314 315 320 327 330 330 329 329 329 330 330 329 329 329 328 327 327 328 327 329 329 331 333 334 334 334 336 337 336 335 335 335 334 335 333 336 336 336 334 332 332 333 336 336 334 328 330 332 332 331 330 332 335 330 331 327 324 326 330 333 333 335 333 333 333 332 332 332 333 333 333 331 327 327
305 301 299 295 298 300 303 303 304 303 303 306 311 312 312 310 312 312 309 309 310 310 311 313 314 321 323 329 329 329 328 329 328 329 329 328 327 326 326 326 327 328 327 328 330 331 333 333 334 334 335 335 334 334 336 336 335 334 335 337 337 334 337 337 338 337 336 335 334 335 332 332 332 330 331 332 333 327 330 324 326 328 330 331 333 335 335 334 333 332 332 332 333 333 327 324 324
306 302 297 298 303 302 304 305 305 305 306 307 308 310 310 311 313 314 309 308 310 308 308 310 312 317 320 325 328 328 328 328 328 328 328 328 327 327 326 326 326 327 328 328 328 331 331 331 332 333 334 335 334 333 334 333 335 335 333 334 334 335 336 338 338 338 337 336 336 335 333 333 331 330 336 335 335 330 329 324 324 325 326 327 326 329 331 333 334 334 333 333 332 328 326 325 325
304 301 298 300 304 302 304 305 305 306 308 307 307 307 310 311 312 312 310 308 308 309 312 312 311 314 319 323 326 327 326 327 327 327 326 326 326 327 326 327 326 327 329 329 329 330 330 331 331 331 333 334 334 333 332 331 332 335 332 331 332 334 333 336 336 337 337 337 336 335 334 333 333 330 331 331 331 330 327 326 325 324 324 325 321 325 327 328 329 328 328 328 327 326 325 324 323
305 301 303 303 303 301 305 307 310 308 308 308 307 304 307 313 311 310 310 306 305 310 313 315 315 316 321 321 325 326 326 326 326 326 325 325 324 325 326 327 328 329 329 328 329 330 330 331 331 331 332 333 334 333 332 330 330 328 328 330 330 332 333 333 334 334 336 337 337 335 334 333 332 332 331 331 331 330 329 327 326 326 327 327 325 326 326 325 327 327 327 327 326 327 325 324 323
298 301 302 303 303 302 305 307 308 307 306 305 303 303 303 307 307 310 310 309 311 315 316 316 317 316 323 323 325 324 325 325 325 326 326 325 325 325 326 327 328 328 329 329 330 330 331 331 331 332 331 331 333 333 332 329 328 329 328 329 330 329 331 332 332 332 333 335 337 336 334 332 331 330 330 330 330 330 327 328 328 328 327 326 327 327 326 324 325 326 325 324 326 326 324 321 320
301 298 301 302 304 303 307 306 307 307 306 304 305 307 307 306 302 311 309 312 314 315 316 316 317 324 322 323 324 324 325 325 326 327 328 327 326 326 327 328 329 329 329 330 330 330 330 330 331 331 331 331 331 333 331 329 328 328 329 327 329 328 328 330 331 332 332 333 335 335 334 332 330 329 329 329 328 328 327 327 327 326 325 324 326 326 323 322 322 322 322 321 321 321 320 320 320
298 297 302 304 305 304 305 305 307 307 307 306 306 304 306 308 307 309 308 311 313 314 315 315 316 320 323 324 323 323 325 326 326 327 328 328 329 328 329 328 329 330 329 330 330 330 330 331 331 331 331 331 331 332 330 329 328 328 328 328 328 328 328 328 329 331 331 331 333 334 332 332 329 329 329 328 328 327 327 327 325 324 326 326 326 323 321 321 321 321 322 321 320 320 319 319 320
299 300 305 304 303 302 306 307 307 306 308 307 304 304 306 307 308 306 308 310 313 314 314 316 317 317 318 323 322 323 323 326 327 326 327 328 329 328 328 328 330 330 331 330 330 330 331 331 331 331 331 331 331 331 330 329 329 328 329 328 328 327 327 329 329 328 329 330 329 333 333 332 329 327 327 328 328 327 327 326 325 325 324 325 325 325 322 321 320 320 320 319 321 321 320 321 320
301 301 302 302 302 300 301 304 306 306 307 307 303 303 304 306 304 299 307 310 314 314 313 314 314 314 315 316 321 322 322 324 326 327 327 327 327 327 327 328 328 331 332 331 331 331 331 331 331 331 332 330 332 331 331 330 330 330 329 330 329 328 328 329 328 329 328 328 329 330 332 331 330 329 327 327 326 326 326 326 325 325 324 324 325 325 325 324 322 321 322 321 321 321 321 321 319
301 302 302 302 304 305 304 303 304 305 304 306 305 303 305 305 304 301 305 311 313 312 312 313 313 313 313 315 315 318 320 322 325 326 326 326 326 327 327 328 328 329 331 331 332 332 333 332 332 332 332 332 331 331 330 331 330 331 330 331 330 330 329 328 328 328 326 328 329 329 330 331 330 329 328 328 327 325 325 324 325 325 323 323 324 325 325 324 324 324 323 322 320 320 320 318 318
301 302 296 297 299 298 302 301 304 305 303 306 307 303 301 302 300 305 307 309 310 311 311 311 312 313 313 314 315 315 317 319 324 324 326 328 328 329 328 330 330 329 331 333 333 332 332 333 333 333 333 332 332 332 331 332 331 332 331 331 330 331 330 329 329 328 329 329 329 330 330 330 330 329 327 327 327 326 325 324 324 324 324 324 324 324 324 324 324 323 323 320 320 320 318 317 318
303 301 297 296 296 294 298 301 302 302 303 305 305 291 295 300 303 305 308 309 309 308 309 310 311 313 313 314 314 315 317 319 319 324 326 327 328 329 329 331 332 331 330 332 333 333 334 334 334 334 333 332 332 332 332 332 332 332 331 331 330 330 329 328 328 329 329 329 330 330 330 330 329 329 328 326 326 326 325 325 323 323 324 324 324 324 323 322 321 321 321 320 319 320 319 317 316
297 299 299 292 289 288 296 297 300 298 303 303 305 290 291 298 303 306 307 309 308 306 307 309 310 312 312 313 313 313 316 319 319 322 325 327 328 329 329 331 332 332 330 331 332 333 333 334 334 334 332 332 331 332 332 332 332 332 331 331 331 330 330 329 328 328 328 329 329 329 330 329 329 329 329 327 326 325 324 323 323 324 324 323 322 322 322 322 321 320 319 319 319 318 318 318 317
299 292 290 293 289 290 295 298 300 297 301 304 302 292 293 295 298 305 307 308 309 306 306 308 310 311 312 312 313 313 314 318 320 321 324 325 326 326 327 327 331 331 330 331 332 334 333 334 333 333 332 332 332 332 332 333 333 333 332 330 331 331 330 330 329 328 328 328 328 328 329 329 328 329 328 328 325 325 323 323 323 324 323 324 323 322 323 321 320 321 320 320 317 317 317 317 317
296 293 289 289 291 291 292 298 302 303 300 302 301 292 294 295 299 301 303 307 307 306 306 306 308 309 311 311 311 312 313 314 318 320 322 324 324 324 325 325 325 329 329 330 331 333 333 334 332 332 331 332 332 332 332 332 333 333 333 332 332 331 331 330 329 329 329 328 327 328 328 328 328 328 328 327 326 325 324 324 323 325 325 324 323 322 322 322 322 322 321 321 320 318 317 317 317
289 294 290 291 290 292 289 298 301 302 300 297 301 297 294 294 299 300 302 304 306 305 306 306 306 306 308 308 309 311 312 313 315 317 320 322 323 324 325 326 326 327 328 329 331 332 332 333 333 332 332 332 333 332 332 332 333 333 333 332 330 331 331 331 330 329 329 329 328 327 328 328 327 328 327 326 325 325 325 324 324 325 325 324 323 322 321 322 322 321 320 320 321 320 316 316 316
287 289 289 290 291 291 291 294 298 300 300 298 298 297 297 297 300 301 303 305 304 304 305 306 305 305 306 306 306 307 309 311 313 316 318 320 321 324 325 326 326 326 328 329 329 331 331 331 332 331 332 333 333 333 332 332 332 332 332 332 331 331 331 331 330 329 329 328 328 328 329 329 327 328 327 326 325 325 324 324 324 324 324 323 323 322 321 321 321 321 319 319 320 320 319 319 319
289 290 291 292 289 289 289 296 300 301 298 296 295 294 297 299 300 301 301 303 303 302 303 303 303 303 304 305 305 305 305 306 310 313 316 318 320 322 324 325 325 326 327 328 327 328 329 329 330 331 331 333 333 333 332 331 331 330 329 329 329 329 330 329 330 329 329 329 329 328 328 328 327 327 328 327 326 324 324 324 324 324 323 323 322 322 321 320 320 320 321 321 321 322 322 323 323
293 292 291 290 292 292 293 296 298 301 298 296 296 295 295 297 300 302 303 301 302 301 301 301 302 302 303 303 304 305 306 306 313 315 316 317 318 318 320 320 320 323 324 326 326 327 327 328 328 329 330 331 331 330 331 331 329 329 329 329 329 330 329 329 329 329 329 329 329 329 328 328 327 327 327 328 327 324 325 324 324 323 324 323 323 322 322 322 323 324 324 324 323 322 322 323 323
293 291 291 289 292 291 294 293 297 299 294 292 296 295 295 295 297 298 300 302 301 301 301 302 302 302 303 303 304 305 306 311 313 313 314 315 313 315 315 315 314 316 319 321 322 325 326 327 327 328 329 329 329 330 330 331 331 330 329 329 329 329 328 327 327 328 328 329 328 328 328 328 328 327 326 327 327 327 327 326 325 325 325 324 323 323 323 321 324 325 325 323 324 323 322 323 323
293 291 291 289 289 293 296 296 297 297 295 290 293 291 292 294 296 298 298 298 300 303 303 303 303 302 303 304 304 305 305 306 307 308 310 310 314 314 313 314 314 315 316 317 317 318 321 325 326 327 328 328 328 328 329 329 330 330 330 329 329 328 330 329 328 327 327 328 328 328 328 328 328 327 326 326 327 328 328 327 326 325 325 324 322 322 322 323 324 324 324 322 321 323 322 323 322
292 291 289 286 291 288 283 292 295 296 294 291 291 290 291 294 295 295 297 298 299 302 303 303 302 302 303 303 303 304 305 305 305 306 307 309 310 313 313 312 313 313 313 313 314 314 317 320 323 325 326 327 327 327 326 329 330 331 330 329 329 328 326 327 327 326 326 327 327 328 328 328 328 328 327 327 328 328 328 327 326 325 325 326 325 324 324 324 325 325 325 324 323 320 320 321 323
292 292 290 289 289 290 288 288 292 292 293 294 291 289 288 290 290 292 296 298 298 299 299 300 302 303 305 305 304 303 301 302 303 305 307 308 308 309 312 313 313 313 313 312 313 314 315 315 320 323 324 325 326 325 325 327 327 327 328 326 326 326 324 325 324 324 325 325 326 326 327 327 328 329 329 329 327 328 328 328 327 327 326 327 327 326 325 325 325 326 325 324 323 321 320 320 322
289 292 292 292 293 291 290 291 290 286 285 290 290 281 282 286 288 290 292 294 294 297 297 297 298 302 303 303 302 302 303 302 303 304 305 307 307 306 308 311 312 312 313 313 313 313 313 314 316 319 322 324 325 325 325 326 326 327 326 324 322 322 322 323 322 323 324 324 325 326 327 327 328 329 330 329 328 327 327 328 327 327 327 327 326 326 326 326 325 325 325 325 324 323 322 320 319
288 288 295 294 293 293 291 290 289 280 279 288 291 281 279 286 285 287 290 291 292 293 294 296 297 300 303 303 303 302 302 303 303 303 303 303 305 306 306 308 311 311 312 313 313 312 312 313 314 316 319 322 324 325 325 324 325 326 325 325 324 324 323 324 325 325 325 325 325 325 326 327 328 328 329 329 329 328 328 328 327 327 327 327 326 326 325 325 325 325 326 325 325 324 323 320 320
286 294 295 295 293 292 290 290 288 284 289 289 289 289 280 280 286 289 290 288 289 291 292 294 296 297 300 302 302 302 302 302 303 303 304 303 302 303 305 306 308 310 311 311 312 313 312 312 314 315 318 320 324 325 325 324 324 325 324 324 324 324 324 324 324 324 325 325 325 325 325 327 327 328 327 328 329 328 327 328 328 327 327 327 325 326 326 326 326 326 326 326 325 324 324 322 321
290 295 297 294 294 292 291 289 287 286 284 281 285 289 280 279 284 289 290 287 288 289 290 292 294 296 297 299 300 301 302 302 302 303 303 304 304 304 304 304 306 308 308 309 310 312 313 313 313 314 317 320 323 325 325 324 324 325 325 325 323 324 325 324 323 324 324 324 325 325 326 326 327 327 327 327 327 328 326 327 328 327 327 327 325 326 326 326 325 324 325 325 325 324 324 324 323
293 296 298 297 296 294 293 288 286 284 282 278 283 286 278 279 284 284 287 286 287 288 291 293 295 296 297 298 299 300 301 301 302 303 303 304 304 305 305 305 306 306 308 310 310 311 312 313 314 314 316 320 323 324 324 324 324 324 324 324 323 323 323 323 323 323 324 324 324 325 325 325 326 326 327 327 327 327 326 326 326 326 326 326 324 325 326 326 325 324 324 325 325 323 323 323 322
297 296 294 293 292 289 289 288 285 283 278 279 285 286 283 276 283 284 284 286 288 289 291 292 296 296 297 298 299 300 300 301 303 303 303 305 306 306 306 305 305 305 307 308 308 310 312 313 313 313 315 318 321 324 324 323 323 324 324 324 324 323 322 322 322 322 323 323 324 324 324 325 325 326 326 326 327 327 326 325 325 326 326 325 324 325 325 325 325 324 325 324 323 322 321 322 322
295 290 289 289 287 288 285 284 285 278 275 282 285 285 285 276 280 286 289 290 289 290 290 292 293 295 296 297 298 300 300 301 302 303 304 303 304 304 305 305 305 305 306 307 308 311 312 313 313 312 314 317 319 323 324 324 323 323 323 324 323 324 323 323 322 322 323 324 324 324 324 324 324 325 325 325 326 326 325 325 325 326 325 325 325 325 325 325 325 325 324 324 324 324 323 322 321
293 291 288 283 279 282 276 281 277 276 275 281 285 286 282 281 285 286 289 290 292 292 293 292 292 293 296 297 298 298 298 298 300 301 303 303 303 303 303 304 304 305 306 306 309 310 311 311 311 311 311 313 316 321 322 323 323 322 322 323 323 324 323 323 322 322 324 324 324 324 323 323 323 324 325 325 325 326 325 324 324 324 323 323 324 325 325 325 324 324 323 323 323 323 323 322 321
290 287 285 281 276 276 273 277 278 279 281 284 283 287 281 284 288 291 291 292 293 292 294 294 293 294 295 296 298 299 299 299 300 302 302 303 304 304 304 304 304 305 305 307 308 310 310 311 310 310 310 311 312 315 320 321 322 322 321 321 322 323 323 323 323 323 324 324 324 324 324 323 323 323 324 324 325 325 324 324 324 323 323 324 325 325 325 325 324 323 323 322 322 323 322 321 320
289 291 288 283 281 276 272 275 272 274 277 281 285 281 274 280 282 290 293 294 295 295 294 293 293 293 293 294 295 298 301 301 301 301 304 305 306 306 306 306 306 306 306 306 307 309 310 310 310 310 309 310 311 312 316 319 320 321 321 321 321 322 323 323 323 323 324 323 323 323 323 323 322 322 323 323 324 325 324 323 323 323 324 324 324 324 324 324 323 323 322 321 321 321 321 320 318
291 292 291 284 282 286 277 279 276 276 276 277 279 278 282 283 290 291 292 294 294 295 295 294 294 294 292 293 296 299 301 302 302 302 303 304 305 306 306 307 307 307 307 307 308 309 310 310 309 310 310 310 311 311 314 316 318 319 320 320 320 321 321 322 322 322 323 323 323 323 323 323 323 323 323 323 323 323 322 322 321 321 322 323 324 324 323 323 322 322 321 320 318 319 319 318 317
288 289 282 286 292 288 282 282 282 280 277 275 281 281 285 290 291 292 292 293 293 293 293 294 294 293 293 294 296 298 299 299 301 303 303 304 304 305 306 306 307 307 307 308 309 309 310 310 310 310 310 311 313 313 314 315 317 318 319 320 320 320 321 321 322 320 321 322 322 322 322 322 321 322 322 321 320 318 320 320 319 318 318 319 320 321 321 321 321 320 319 316 316 316 316 316 314
289 281 287 294 294 287 284 277 280 278 274 275 282 278 280 281 278 292 291 290 291 292 292 293 294 294 293 294 296 297 298 298 300 303 304 304 304 305 305 306 306 307 308 308 308 308 309 310 311 310 310 312 312 314 315 316 316 317 318 319 320 320 320 320 320 321 321 321 320 320 318 318 317 317 318 317 317 317 315 313 316 315 316 316 315 315 314 313 314 314 315 315 314 313 313 312 313
289 287 296 286 279 279 282 281 274 274 274 275 279 280 281 283 283 286 286 289 290 292 292 292 292 292 293 294 296 297 298 298 300 302 303 304 304 305 305 304 305 306 307 308 308 308 307 308 308 309 310 311 311 313 313 314 314 316 319 319 319 319 319 319 318 320 319 319 318 318 317 315 311 311 312 312 312 311 311 310 310 311 313 313 313 313 313 312 312 312 311 311 311 311 311 310 310
291 290 287 291 287 282 281 280 281 280 274 275 275 279 277 285 285 288 287 288 290 291 292 292 293 294 295 296 296 297 298 300 302 302 302 303 303 304 305 305 305 305 305 305 305 305 305 305 306 307 307 308 309 310 310 310 308 310 310 311 312 314 314 317 317 318 317 316 315 315 312 309 309 309 309 309 309 308 308 308 308 308 308 308 309 310 309 310 310 310 309 309 309 310 310 309 308
285 283 283 284 282 287 287 285 281 278 276 276 274 275 278 286 290 289 289 291 290 290 292 294 294 295 296 296 298 298 298 300 301 301 301 302 303 302 303 304 305 303 302 302 303 303 303 304 304 303 305 304 305 306 307 307 307 307 308 308 308 308 309 310 311 312 311 310 308 307 307 306 306 306 307 306 306 307 307 306 307 306 307 306 307 307 307 307 307 307 307 308 306 306 307 307 307
285 286 284 285 283 280 277 275 285 281 278 275 276 274 281 287 293 292 292 292 292 292 292 293 295 296 296 297 297 297 298 299 301 301 301 301 301 302 302 302 302 301 300 301 301 302 301 301 302 302 302 304 305 305 305 305 305 306 306 306 305 305 306 306 306 306 305 305 304 304 304 304 303 303 304 304 304 304 304 305 305 305 305 304 305 304 303 303 304 305 304 306 305 303 303 303 303
Wind_Speed
16 14 12 12 9 3 3 3 3 2 2 7 5 2 3 2 3 3 5 3 4 3 3 1 4 2 2 4 5 3 7 4 3 2 1 2 2 2 3 12 14 12 12 10 9 8 9 11 14 15 14 13 13 13 13 13 12 10 10 10 10 10 10 9 9 9 9 9 9 8 9 9 8 8 7 7 6 6 7 9 9 11 11 11 11 11 11 11 11 11 11 11 12 12 11 12 12
11 13 13 11 5 2 3 6 2 4 4 7 4 7 3 3 2 1 5 3 5 3 3 2 0 1 4 4 4 4 6 6 6 5 4 4 4 3 2 13 13 13 11 10 9 8 9 9 13 15 14 13 13 13 13 12 12 10 10 10 9 10 10 11 10 9 10 10 9 9 8 9 7 9 7 7 8 7 6 5 5 7 12 11 11 11 10 10 11 11 11 11 11 11 11 11 11
12 11 11 7 7 4 4 3 3 3 4 5 3 4 3 3 3 4 11 9 6 3 4 4 3 0 2 3 5 2 4 9 10 8 4 6 8 4 5 12 11 12 13 9 9 8 7 8 12 14 15 13 12 12 13 12 12 10 10 9 9 10 10 10 10 7 7 9 12 9 9 8 7 7 8 7 8 7 7 6 7 13 12 11 9 10 11 10 10 10 12 12 11 10 11 11 11
10 9 7 5 4 3 2 2 4 5 5 3 3 0 2 3 7 9 8 6 4 4 2 4 3 2 2 4 1 3 5 4 6 9 5 7 5 8 6 11 11 10 10 9 9 8 7 9 11 13 14 13 13 12 12 12 12 11 10 9 9 9 9 9 10 9 8 6 8 8 8 7 9 8 7 8 7 7 7 6 9 11 11 10 9 9 9 10 10 9 10 12 11 10 10 9 10
11 8 4 3 3 2 1 3 3 4 7 1 2 2 3 5 7 8 5 4 3 2 2 3 1 2 1 3 2 0 1 7 6 7 7 3 11 9 8 10 9 10 9 9 9 9 8 12 10 10 12 14 13 12 11 12 12 12 10 9 9 8 8 7 10 9 8 7 7 8 7 8 8 8 8 8 7 6 5 5 8 8 10 10 10 9 8 8 10 8 9 11 11 10 9 9 9
10 8 8 3 3 1 1 3 4 5 7 3 1 3 3 6 7 8 6 4 3 3 0 4 1 6 2 2 1 2 1 0 4 5 6 6 12 11 10 8 8 9 9 8 8 9 9 11 11 10 11 14 13 12 12 11 10 10 11 10 9 8 7 7 11 9 9 8 6 7 8 7 7 9 9 7 4 7 6 5 7 6 8 9 9 9 8 8 10 9 8 10 11 10 9 9 8
7 8 4 0 3 1 2 4 6 7 3 2 2 5 6 5 7 8 6 5 3 2 1 2 3 1 3 3 5 3 4 3 4 4 7 9 10 10 11 8 8 8 9 8 7 10 12 13 11 10 10 12 13 12 12 11 11 9 10 10 9 9 7 10 10 8 8 7 6 6 8 8 7 8 8 7 6 6 6 3 4 6 8 7 9 9 9 8 9 10 8 8 10 10 9 8 8
5 2 2 3 3 2 4 5 8 7 2 4 5 6 6 7 7 6 7 6 5 3 3 3 1 2 4 2 2 1 6 5 9 12 13 10 10 11 9 8 8 7 7 8 7 10 13 14 12 10 9 10 12 11 11 10 10 11 9 10 10 9 7 6 8 7 7 8 7 6 6 6 5 7 8 6 8 6 6 6 5 6 5 7 9 8 9 8 8 8 9 8 7 8 9 8 7
4 3 2 2 4 3 4 6 7 7 1 1 3 7 7 8 5 6 7 3 7 4 7 5 3 2 3 4 4 5 4 7 10 11 11 12 11 11 8 9 8 7 6 8 10 9 10 12 11 10 9 9 9 11 11 10 11 11 11 10 10 9 8 6 7 7 7 8 9 6 5 5 6 6 6 6 6 6 6 6 5 5 5 5 7 8 8 7 7 7 7 7 6 7 7 8 7
4 2 2 2 2 6 4 5 6 7 6 7 6 5 4 5 5 5 7 5 7 3 8 7 4 4 4 4 5 4 5 8 10 10 10 11 11 8 7 9 9 8 7 11 9 9 6 11 12 9 8 7 7 8 8 10 11 11 11 10 10 9 9 8 7 6 7 7 9 6 4 4 6 5 7 6 6 7 6 5 7 5 4 3 5 7 7 8 7 6 5 5 5 5 6 5 6
2 3 2 2 3 5 5 6 7 5 8 4 3 9 3 4 4 5 6 5 5 4 6 6 4 5 2 5 3 3 9 10 11 12 10 11 9 8 7 8 9 7 7 12 10 9 8 6 11 9 7 6 7 6 6 8 10 11 11 11 10 10 9 9 7 6 6 5 9 7 6 5 6 4 3 7 8 6 5 4 4 6 6 4 2 2 5 6 6 6 5 5 4 4 4 3 4
2 2 2 3 4 5 5 5 8 8 10 5 3 7 4 4 3 4 4 5 6 4 6 6 2 5 3 3 2 5 9 9 9 10 11 10 8 7 8 6 9 7 7 8 11 10 8 7 6 7 7 7 7 5 5 7 9 10 10 11 10 10 10 10 8 7 7 6 7 7 7 7 7 7 5 6 6 5 3 4 5 6 5 4 2 1 2 4 5 5 5 4 3 3 3 2 1
3 2 3 4 4 4 5 9 8 10 7 3 4 7 7 5 5 4 4 3 8 4 7 10 2 2 3 2 3 7 9 8 9 10 11 8 7 6 6 8 9 8 8 7 10 10 10 8 6 6 6 7 6 6 5 5 6 9 10 10 9 10 10 10 9 9 8 7 5 6 8 8 6 7 7 7 6 6 6 4 6 6 5 5 5 2 1 1 2 5 5 4 3 2 1 2 1
3 3 2 4 3 7 7 6 7 7 4 2 6 9 9 5 5 5 3 5 7 6 7 9 2 3 1 5 5 6 7 9 12 10 8 8 6 6 5 7 6 8 7 6 7 11 10 8 8 8 7 5 4 4 5 5 5 9 8 8 6 6 9 8 8 8 8 6 6 6 8 7 6 4 6 7 6 6 6 5 5 5 4 3 4 4 3 2 2 3 4 5 3 3 1 1 2
3 2 1 2 4 4 5 6 5 5 5 4 2 12 7 6 6 5 5 6 4 6 6 6 1 2 1 5 5 8 9 11 11 10 8 8 7 6 6 6 6 8 7 4 5 9 10 10 10 8 7 7 7 5 4 4 6 7 8 8 7 6 7 8 8 7 7 6 7 7 8 8 7 7 6 6 7 8 7 7 6 5 4 4 4 4 4 4 2 2 1 2 4 4 4 3 3
2 2 2 3 5 6 6 8 4 7 4 6 5 6 8 5 6 6 2 4 2 1 7 3 1 1 5 7 7 12 13 12 10 10 9 9 7 5 7 5 5 7 7 5 5 4 8 9 8 8 8 7 6 6 7 6 6 8 9 9 8 8 7 7 8 8 7 6 7 8 8 6 6 5 7 4 5 7 8 6 7 6 5 5 4 4 4 3 3 3 3 3 3 4 5 5 5
2 2 3 4 8 7 5 6 5 5 3 7 6 5 7 6 3 1 3 1 4 4 3 4 3 1 5 4 10 14 12 11 10 10 10 7 6 5 5 6 5 5 6 6 5 5 5 8 9 9 9 9 8 8 8 8 8 9 8 9 9 9 8 8 7 8 7 6 6 7 7 5 5 5 6 5 8 4 7 6 7 6 6 5 4 3 4 4 4 4 4 4 5 5 2 3 5
3 4 4 8 6 9 5 8 6 4 6 3 7 8 7 7 5 3 1 0 1 6 4 4 4 7 8 9 8 10 11 11 10 12 10 8 6 6 6 5 5 6 6 6 5 7 6 6 7 9 9 9 8 7 6 7 8 9 7 6 6 6 6 7 7 6 6 5 8 6 5 5 5 5 7 7 6 7 8 9 8 7 6 6 5 4 4 5 5 5 5 6 6 6 6 4 4
6 3 6 10 7 6 5 6 9 8 6 4 8 7 5 4 11 3 5 4 4 4 4 5 5 8 8 9 10 9 10 9 10 11 13 11 9 10 8 7 7 7 7 6 6 7 7 5 6 7 8 8 7 6 5 6 9 8 8 7 6 7 6 7 6 6 5 5 6 6 6 5 6 6 7 8 7 10 9 10 9 8 7 6 5 5 4 4 5 6 7 6 6 4 5 5 5
7 5 8 9 5 6 8 8 11 9 3 5 5 2 3 2 7 6 6 7 7 8 5 5 8 9 10 9 10 10 9 9 9 10 11 11 10 10 9 9 8 8 9 8 8 6 8 6 6 7 7 8 7 6 6 5 7 7 7 7 7 7 6 6 6 6 6 7 6 6 6 6 6 6 5 14 9 7 9 12 11 10 8 6 6 4 5 5 8 9 8 7 5 3 5 5 6
4 8 9 6 7 10 11 11 10 9 2 1 3 3 1 3 4 5 3 5 9 8 7 7 10 11 12 12 11 10 10 10 9 8 10 10 9 8 9 9 9 8 7 7 6 8 8 8 7 6 7 8 7 7 7 6 7 8 7 7 7 7 7 7 6 6 7 7 7 7 7 6 6 4 5 6 6 6 6 6 5 5 5 4 5 4 5 5 6 5 5 6 5 6 6 7 7
3 10 8 9 7 9 7 7 7 6 7 3 3 4 2 3 5 4 4 7 5 4 7 12 10 10 15 13 13 10 11 11 11 10 10 11 11 9 8 6 6 5 7 8 8 8 8 7 7 6 6 7 8 6 7 6 6 6 7 8 7 7 8 8 7 7 7 8 7 6 7 6 6 6 5 6 5 6 7 6 6 6 6 6 6 6 6 6 6 6 6 6 6 6 7 7 7
9 6 8 8 10 11 5 5 3 4 2 2 2 3 4 3 6 4 2 6 3 6 8 6 4 6 17 17 14 12 12 12 12 12 11 10 11 9 9 9 9 9 8 8 7 7 8 7 7 7 6 6 8 6 6 6 7 6 6 7 8 7 8 8 8 7 7 7 7 7 6 6 6 6 5 6 7 6 6 7 7 7 7 7 7 7 7 7 6 7 7 7 7 7 7 4 3
11 8 6 10 10 12 8 2 4 2 4 3 3 4 4 3 12 1 6 6 9 2 4 4 4 5 15 14 15 16 14 13 13 12 11 11 11 10 9 9 9 7 7 8 9 8 9 9 7 7 7 7 7 7 7 6 6 5 6 7 7 7 7 8 8 7 7 8 8 7 7 6 6 6 6 6 6 6 6 5 7 8 7 6 8 7 7 7 7 4 4 3 4 4 3 2 1
10 11 7 8 8 8 7 7 4 2 3 4 5 4 4 5 5 2 8 7 7 6 4 4 5 2 8 11 11 11 11 11 10 10 8 7 8 8 7 6 8 8 9 9 9 9 11 10 10 9 7 8 7 8 7 6 6 6 5 5 6 6 6 6 6 7 7 7 8 8 7 7 6 6 6 6 6 6 6 6 6 5 5 5 4 4 3 4 5 4 4 4 3 3 3 3 3
9 9 4 7 10 10 4 5 7 3 2 3 5 7 5 7 7 12 10 6 4 5 3 5 5 1 3 9 8 10 10 11 10 10 11 9 8 10 8 7 7 10 9 9 9 8 9 11 12 12 10 9 8 7 7 6 7 7 6 5 6 6 5 5 5 6 6 6 6 8 7 7 7 6 6 7 7 7 6 6 6 6 6 6 6 5 3 3 3 2 3 3 4 4 5 6 6
3 2 6 10 11 11 7 7 7 7 5 5 9 8 9 7 6 8 6 8 5 7 7 4 5 5 5 4 8 8 9 10 11 9 8 7 7 9 9 7 7 8 9 10 8 8 9 11 11 11 10 9 8 8 8 7 7 7 7 6 5 7 6 6 4 5 6 6 6 6 7 7 6 6 6 6 5 6 7 6 6 6 7 6 6 6 5 5 4 4 4 4 5 4 5 5 6
10 7 8 8 7 9 9 7 8 5 6 9 10 10 8 9 8 12 4 6 10 10 8 7 6 5 5 6 5 6 7 8 8 8 11 10 9 9 10 10 8 7 10 10 8 7 9 12 11 11 11 10 9 9 8 8 7 7 8 7 7 6 7 6 6 5 5 7 6 6 6 7 7 6 5 5 5 5 5 6 6 6 6 6 7 7 7 6 6 5 5 5 4 4 5 4 3
7 6 10 9 9 11 11 11 7 5 7 4 5 8 13 10 15 10 9 5 6 12 14 12 8 6 6 5 6 5 6 6 8 8 10 10 9 8 10 10 9 8 6 9 9 9 9 11 11 12 11 10 10 10 9 8 7 7 7 8 7 7 7 7 7 6 6 5 6 6 7 7 7 7 6 7 6 6 5 6 6 7 7 6 7 7 7 7 7 6 6 4 4 4 4 3 2
7 7 6 8 8 12 13 10 11 10 7 6 6 7 13 13 15 12 8 9 9 8 9 11 10 8 8 6 6 6 6 5 6 9 8 8 8 9 10 9 10 8 7 7 9 11 9 7 8 9 11 11 11 9 8 8 8 7 6 7 7 7 7 7 7 7 7 6 6 6 7 7 7 8 6 6 6 7 7 7 7 7 7 6 7 7 7 6 6 6 6 5 6 6 5 4 4
5 6 6 7 5 8 7 11 12 15 9 10 8 12 10 6 12 15 13 11 12 14 10 7 8 9 7 7 7 6 7 7 6 6 8 9 9 8 10 9 10 9 7 8 11 11 10 9 8 8 10 10 10 10 9 9 8 7 7 7 7 8 7 6 6 6 7 7 7 7 7 7 8 7 7 6 7 6 6 6 6 6 5 5 6 6 7 6 6 6 6 6 6 6 6 6 6
5 4 7 7 9 8 6 11 15 15 7 12 9 11 12 6 5 11 17 15 17 15 15 11 9 7 7 6 7 7 6 7 8 7 8 7 8 8 9 9 11 11 10 10 10 10 11 10 10 8 10 11 11 11 9 8 9 8 7 7 7 7 7 7 7 7 6 6 6 7 7 7 7 8 7 7 7 7 7 6 6 5 4 4 5 5 6 7 6 7 7 7 6 5 6 7 7
6 9 5 6 8 8 5 7 11 13 7 11 15 6 3 7 15 10 4 18 15 14 13 12 12 12 10 8 6 6 6 6 8 9 8 9 7 6 7 8 10 12 10 10 10 10 11 11 12 10 13 13 11 12 10 8 7 8 8 7 7 7 8 7 7 7 7 7 6 7 7 8 8 7 7 6 6 6 6 6 6 6 6 6 6 6 7 7 6 5 6 6 6 6 7 7 6
7 7 9 6 7 5 7 4 6 11 10 11 16 12 9 3 2 1 7 5 15 14 13 13 12 10 9 8 7 8 9 8 9 9 10 9 8 9 7 7 7 8 9 9 10 11 11 11 11 11 11 12 10 11 11 10 8 7 7 7 7 7 8 7 7 7 8 8 7 7 7 7 7 8 7 6 6 6 5 6 5 6 7 7 7 7 7 6 6 6 7 7 8 8 7 5 5
6 6 7 8 8 9 4 5 5 11 13 11 11 16 12 9 11 0 0 1 3 8 12 11 10 8 8 10 10 9 9 10 10 8 9 10 10 9 8 7 7 7 7 9 8 9 9 9 10 11 10 11 10 10 10 9 8 6 5 6 7 7 7 8 7 7 7 8 8 7 7 7 8 8 7 7 7 7 6 7 7 7 7 7 7 7 7 7 8 8 8 7 7 7 6 6 6
8 7 5 6 8 9 11 3 5 12 10 12 11 11 12 11 11 8 4 4 3 4 3 3 4 5 6 7 7 8 8 9 8 8 9 9 9 8 8 7 8 8 8 8 9 8 9 8 9 10 9 10 9 8 8 8 7 8 8 6 6 7 7 8 8 8 7 7 7 8 7 7 7 8 8 7 7 7 7 6 5 5 6 6 6 7 6 6 6 5 5 6 6 5 6 5 4
13 7 5 7 9 8 7 4 3 7 6 10 12 11 9 7 6 9 12 6 5 6 7 6 5 5 6 6 6 7 7 6 3 3 2 2 5 7 8 7 7 7 8 9 10 10 10 10 9 11 11 10 9 9 9 9 10 8 7 9 10 9 9 8 8 8 8 8 7 7 8 7 7 8 9 9 8 7 6 5 5 5 5 6 6 6 5 5 5 5 5 5 7 7 5 5 5
13 10 7 7 7 6 4 1 4 3 3 3 6 9 10 11 9 9 5 9 12 9 9 10 10 8 8 8 7 6 4 1 1 2 3 4 4 4 5 6 7 8 8 9 10 11 11 11 11 10 10 10 10 11 10 10 10 11 11 12 10 9 9 9 9 9 9 7 7 7 7 7 7 7 8 9 9 8 7 7 7 8 7 6 6 5 6 6 7 7 6 6 6 8 6 5 6
12 10 6 7 7 4 7 4 3 3 0 5 4 8 8 8 9 10 12 11 7 9 11 10 11 11 9 8 8 7 5 5 5 6 5 6 6 7 6 6 7 10 9 10 9 8 9 10 10 9 9 11 10 11 10 10 10 9 10 8 10 7 7 8 7 6 6 7 7 6 6 8 8 6 6 7 8 8 9 9 8 6 7 7 6 5 4 4 5 5 5 5 4 5 6 5 5
8 7 9 10 5 5 4 5 7 4 4 1 2 5 7 5 7 6 6 7 7 10 12 12 10 11 13 11 7 7 8 8 9 8 9 8 8 8 8 8 8 7 7 7 8 9 8 8 8 10 10 10 10 11 11 11 11 10 9 6 7 8 7 6 7 6 6 7 8 8 7 7 8 7 6 6 7 8 8 9 8 6 6 6 6 6 6 7 7 7 6 6 6 6 5 5 6
8 9 7 8 8 8 8 1 2 3 4 2 4 9 11 8 10 8 8 9 9 9 8 10 10 8 8 7 7 8 9 9 9 8 8 9 10 10 10 11 9 9 8 8 8 9 8 9 10 11 11 11 10 11 12 9 7 6 7 4 5 5 3 6 6 6 7 8 8 9 10 7 8 9 8 8 8 9 8 8 8 8 7 7 7 8 9 9 9 8 9 8 8 8 6 3 5
9 7 9 9 7 7 3 2 2 1 3 4 2 3 9 5 13 14 10 10 14 13 14 12 9 9 7 8 9 8 8 7 9 11 12 12 11 8 8 9 10 9 10 10 9 9 9 10 11 12 10 11 11 12 12 10 9 10 9 9 8 7 7 8 10 12 10 10 12 9 8 8 8 9 9 10 9 9 10 9 8 8 9 8 8 8 7 7 8 8 8 8 9 8 7 6 5
9 7 7 11 12 11 10 3 2 3 5 1 2 6 10 3 4 5 10 13 16 8 13 16 14 12 11 11 10 10 11 9 9 8 8 7 8 9 8 8 10 10 9 8 8 8 10 10 11 12 11 10 10 10 11 10 9 9 11 12 11 11 11 9 8 7 8 8 6 7 8 8 9 10 9 10 9 10 10 10 9 8 8 7 7 7 8 8 7 7 6 7 7 6 8 8 7
10 2 6 5 9 13 12 6 4 3 2 2 2 1 5 12 9 7 8 6 7 9 9 12 14 13 12 12 11 11 11 11 11 12 12 8 6 6 7 7 9 10 9 7 8 9 10 10 8 10 9 10 9 9 11 11 11 10 10 10 9 9 10 10 9 7 7 7 8 8 7 8 9 9 9 9 10 10 10 10 9 8 8 7 6 7 8 7 7 7 8 8 7 7 8 8 6
4 2 2 6 6 6 7 5 2 1 3 7 3 2 4 10 6 7 8 14 14 14 7 6 12 12 12 10 11 12 13 12 11 9 10 11 11 12 9 7 7 8 8 9 8 8 8 8 8 7 9 9 8 10 11 11 11 11 11 10 9 8 9 7 6 6 7 7 9 8 8 8 9 10 10 10 10 10 10 10 10 9 8 8 6 6 7 7 8 7 7 8 7 7 7 7 7
7 2 2 2 2 1 2 1 2 2 4 11 10 9 9 17 8 5 8 13 13 12 12 4 6 10 10 11 11 11 11 9 8 9 9 8 8 9 9 8 7 7 7 7 7 7 7 7 7 7 8 7 7 10 11 12 12 10 10 10 11 9 8 7 6 8 9 8 9 9 8 8 8 9 10 10 10 10 10 10 8 9 9 8 7 7 6 7 7 6 6 6 7 7 6 7 8
1 7 2 1 1 0 0 1 2 1 10 12 12 13 12 12 9 8 9 8 8 8 10 8 8 9 10 11 11 11 11 9 8 9 8 8 8 8 7 8 7 5 5 5 5 6 6 6 6 7 8 7 7 9 11 12 11 10 11 12 12 11 11 9 8 8 9 8 9 9 9 8 8 8 9 10 11 10 11 11 11 10 10 9 8 8 8 7 6 5 5 5 5 6 6 6 6
3 3 5 3 3 3 2 3 4 7 11 12 14 12 13 12 12 6 8 4 6 11 11 12 10 11 12 9 9 10 10 8 7 8 7 6 5 5 5 6 6 6 5 5 5 5 6 6 6 7 6 7 6 8 9 11 11 10 10 11 13 12 11 10 11 10 10 11 10 10 8 8 7 8 8 8 9 9 9 11 11 11 10 10 9 8 8 7 6 5 6 6 6 6 5 5 5
5 5 5 8 4 5 7 6 10 12 14 8 9 8 8 18 18 4 4 6 10 9 10 10 8 7 10 10 11 10 8 7 7 6 6 6 7 7 6 7 7 6 7 6 6 5 5 5 5 6 7 6 6 7 10 10 10 11 10 10 10 10 10 10 10 9 8 9 9 9 9 9 8 8 9 10 9 10 9 8 10 9 8 8 8 8 8 8 7 6 7 6 6 7 7 7 7
6 9 8 9 8 8 6 8 4 7 8 8 3 9 13 6 14 17 20 19 11 5 2 2 4 7 9 10 10 9 8 8 7 7 7 7 7 7 8 8 7 7 6 6 5 5 5 5 5 7 8 7 6 6 9 10 10 10 10 9 9 9 9 9 9 9 8 8 8 9 9 9 9 9 10 10 9 9 8 8 7 7 6 6 7 6 7 7 7 7 6 7 6 6 6 6 7
11 6 10 10 7 4 8 6 10 9 8 6 11 5 4 9 5 5 17 19 18 19 8 4 5 5 6 6 4 4 5 5 5 5 6 6 6 6 6 7 7 7 7 6 5 5 5 6 7 8 7 7 8 8 7 8 9 9 8 8 8 7 8 8 8 8 8 8 7 8 7 7 8 7 9 8 8 10 9 7 7 8 7 6 6 6 6 5 5 5 6 5 5 5 6 6 5
5 6 7 9 12 5 13 6 5 5 5 5 6 7 4 8 4 2 2 3 13 19 16 11 9 7 5 5 6 5 5 5 4 5 5 5 6 6 5 5 5 5 6 5 6 5 5 6 6 6 7 7 8 8 8 9 9 8 7 8 8 7 7 6 6 6 6 7 7 7 7 8 7 7 7 7 7 9 9 8 6 6 6 7 6 7 7 6 4 5 5 5 5 3 5 5 5
5 7 11 14 10 12 6 8 6 5 5 8 3 4 7 7 11 8 4 1 1 4 14 15 12 9 9 9 7 5 5 5 6 7 7 7 5 6 6 6 5 6 5 6 6 5 6 6 6 6 6 5 6 7 8 7 7 7 7 7 7 6 7 7 7 6 6 6 6 7 7 6 6 7 6 6 6 5 5 6 5 5 5 4 4 5 5 6 6 6 6 4 5 4 5 6 5
2 8 11 8 1 4 4 7 3 10 11 7 6 10 4 6 9 8 15 7 5 7 7 12 15 12 12 11 8 6 7 9 8 7 8 8 8 8 7 6 6 7 7 6 6 5 5 5 6 7 6 6 5 4 5 5 6 6 6 6 6 6 6 5 6 6 6 7 6 5 5 6 5 4 6 5 5 5 4 4 4 3 3 3 3 2 3 3 3 3 4 4 4 4 4 4 4
16 7 4 9 6 10 2 2 10 6 9 6 11 11 10 8 10 0 6 14 10 8 6 7 10 12 11 9 8 8 8 7 7 7 7 7 7 7 8 7 6 5 6 6 5 5 4 2 3 4 6 5 5 4 3 2 3 4 5 6 6 5 5 5 4 6 5 7 6 6 5 5 6 6 6 6 5 5 4 3 3 3 3 3 2 2 2 2 2 3 2 2 2 3 4 4 3
4 6 3 2 1 5 6 7 3 5 9 6 9 9 12 7 7 7 7 6 9 9 9 10 10 10 10 8 8 9 9 9 9 8 7 7 6 6 7 6 6 5 5 5 5 4 4 4 3 2 3 4 4 4 4 4 3 4 4 4 4 4 4 5 5 6 6 6 5 5 6 5 5 6 6 5 5 4 4 3 3 3 3 3 2 1 1 1 1 2 1 2 3 3 4 4 4
6 3 5 4 3 1 1 3 6 6 7 10 8 10 3 7 5 8 8 10 8 7 11 11 11 9 8 7 10 12 11 8 8 7 6 6 6 5 5 5 5 4 4 4 5 5 5 4 4 4 5 4 4 4 4 4 4 4 5 5 5 5 5 5 5 5 6 5 5 5 5 5 5 5 5 5 5 4 4 4 4 4 4 3 3 3 3 2 2 1 1 1 0 1 1 0 0
6 7 11 10 9 9 11 12 4 5 4 4 7 11 4 2 5 9 12 9 9 11 9 10 12 12 11 11 10 7 5 5 6 5 5 5 5 5 4 4 4 4 4 4 4 4 5 5 4 4 4 4 5 5 5 5 4 4 5 4 4 4 4 4 5 5 6 5 5 5 5 5 5 4 5 5 5 4 4 5 5 4 4 4 4 4 3 3 2 2 1 2 2 1 1 1 2
Wind_Direction
315 314 313 300 285 233 293 214 265 199 208 248 244 262 111 60 93 99 115 192 166 65 68 190 69 193 13 4 356 333 4 25 54 72 137 178 223 177 237 118 119 123 123 129 131 135 139 145 145 146 149 149 147 143 140 139 137 142 139 134 133 126 118 119 115 115 113 106 98 101 98 88 93 83 98 82 79 101 112 105 94 89 83 76 80 73 66 70 79 84 82 80 85 86 87 88 87
304 309 304 294 296 330 239 167 241 286 238 257 272 109 125 111 155 103 146 99 54 94 112 80 163 29 16 345 333 326 56 51 77 93 63 128 163 137 232 124 127 128 125 128 137 143 140 144 146 145 149 149 147 144 143 141 139 141 141 139 135 127 124 128 123 128 130 117 113 102 98 96 93 104 106 104 88 81 85 97 108 87 82 83 77 78 78 80 81 86 90 90 90 94 101 98 94
303 307 304 309 298 199 295 261 260 261 292 278 69 78 137 123 126 93 64 85 95 100 84 80 37 304 135 199 269 297 113 102 89 93 104 148 137 171 192 128 129 129 129 136 140 141 140 143 147 145 147 148 146 147 143 144 142 144 143 142 139 135 138 132 129 125 116 117 122 119 120 121 110 105 109 95 86 95 104 104 98 93 87 81 81 81 75 76 84 98 99 97 98 93 89 96 100
288 278 292 326 310 317 249 241 243 268 254 272 100 345 171 116 94 92 95 96 104 121 156 122 202 45 308 200 41 280 87 65 104 129 130 165 164 165 163 134 131 126 130 141 144 136 141 146 147 147 143 146 147 146 150 149 150 147 145 141 141 143 139 136 133 128 118 118 113 119 118 116 117 113 98 96 97 76 64 52 100 94 95 91 82 75 78 76 85 99 102 100 97 98 99 93 95
301 298 279 292 333 269 293 249 264 234 256 46 92 221 79 83 101 99 97 104 116 127 185 131 142 151 233 341 21 49 124 93 67 103 131 174 129 160 147 134 136 125 134 146 140 135 137 146 147 144 148 148 147 148 156 157 157 151 146 144 145 144 141 144 130 129 125 130 134 127 130 122 121 115 109 102 104 108 92 81 67 87 112 95 88 91 83 82 80 98 102 101 98 96 97 96 96
307 313 285 203 231 1 243 278 267 269 262 261 72 57 108 97 114 113 115 134 112 139 267 146 273 151 195 196 14 67 218 185 127 98 122 121 139 155 141 141 134 134 139 147 138 125 141 146 146 147 151 151 153 157 162 162 161 157 149 146 145 146 146 133 130 130 133 133 135 136 123 132 121 119 110 107 81 97 106 74 51 56 101 100 97 87 85 83 78 93 109 104 104 100 98 102 100
320 324 319 199 255 173 262 260 271 269 293 314 190 151 119 111 112 120 128 107 132 145 132 212 144 44 220 126 90 62 26 111 132 119 123 134 136 151 138 144 126 142 144 141 136 129 142 147 146 147 154 157 154 160 167 163 162 163 155 150 148 147 152 136 140 142 135 138 141 148 139 141 135 123 111 103 110 97 97 92 90 61 38 104 95 91 94 93 79 90 96 95 105 107 105 108 108
273 288 309 341 310 273 241 250 262 274 293 334 20 101 123 118 122 138 145 152 155 176 195 272 128 281 65 222 133 53 65 53 98 100 118 131 148 140 153 142 137 142 145 134 118 131 138 144 146 145 152 159 161 165 164 169 164 159 166 156 151 150 151 152 147 140 138 143 141 134 126 116 109 118 103 105 123 121 116 105 98 62 54 101 109 106 92 81 82 82 93 102 107 110 118 110 114
296 258 222 307 260 236 260 264 271 275 99 267 85 52 99 132 144 153 157 179 130 202 165 184 184 198 145 167 90 144 90 105 106 121 128 141 144 150 155 139 137 144 141 105 108 124 138 141 140 141 151 162 166 163 168 167 161 162 165 163 154 155 151 153 154 149 148 151 147 144 83 122 137 141 121 131 133 124 108 107 100 87 51 93 114 108 101 96 91 86 89 80 90 120 119 120 113
293 182 277 269 323 290 287 265 243 252 250 160 135 152 134 131 152 183 164 150 161 180 171 166 176 231 147 130 114 140 136 125 126 121 133 139 143 147 146 141 133 153 124 109 122 124 129 138 137 137 147 159 158 158 167 164 166 163 161 169 160 157 155 156 161 154 159 155 147 141 140 112 117 116 139 146 125 111 97 106 101 105 96 81 82 121 117 116 105 102 90 82 85 86 119 121 122
303 303 238 284 262 263 255 274 277 260 244 120 121 136 148 133 157 215 157 174 136 177 110 143 185 230 273 88 76 76 126 137 136 135 144 140 146 152 142 146 139 151 129 125 129 126 135 136 135 138 138 146 153 155 169 155 167 166 168 169 167 160 159 156 158 158 172 150 155 155 147 143 133 125 94 79 84 102 128 132 144 136 138 124 122 100 131 123 124 114 105 95 93 94 90 114 143
281 249 268 232 242 253 257 254 257 265 269 124 163 125 138 167 181 201 185 185 147 171 144 157 182 193 236 142 134 144 138 147 135 139 143 145 144 157 144 140 142 147 134 130 128 131 139 141 133 146 143 140 153 156 161 159 172 166 170 171 180 162 164 159 162 168 171 154 168 165 156 152 156 153 134 102 96 109 162 176 161 129 112 128 129 142 82 137 132 133 126 118 97 90 100 92 55
228 316 293 277 255 241 267 273 280 290 314 210 146 159 130 178 196 194 191 228 146 175 166 185 77 205 209 95 134 135 153 145 134 140 139 151 148 143 151 134 148 139 137 134 124 135 140 145 146 150 155 147 150 166 143 162 165 162 171 175 192 167 169 166 168 167 170 180 185 169 153 160 154 158 149 133 131 112 98 101 130 138 148 163 158 145 131 120 133 159 147 134 125 108 101 113 93
249 208 247 264 276 268 274 279 289 283 264 316 188 136 147 172 196 208 176 214 160 202 159 175 194 195 79 99 143 158 152 140 138 136 145 147 143 131 134 126 142 130 144 136 142 141 146 154 156 159 158 162 159 159 157 154 148 159 166 173 186 170 171 170 171 171 172 176 128 140 144 153 147 122 152 152 143 121 118 110 105 136 146 127 153 164 161 176 215 196 158 162 159 169 171 178 152
249 323 271 270 265 291 256 255 245 266 278 303 38 130 156 183 171 200 223 200 198 108 104 136 177 122 200 171 173 169 148 140 139 137 145 134 130 138 121 131 134 124 140 154 163 147 154 161 161 161 163 174 167 168 169 165 151 150 153 163 178 175 164 168 169 172 175 161 148 142 142 141 136 143 158 169 160 145 141 137 132 142 160 173 181 188 186 184 213 223 224 196 187 203 208 219 219
263 285 250 232 237 236 246 261 253 275 283 299 138 147 160 176 173 188 200 47 74 205 130 142 29 282 31 46 132 135 134 136 139 142 136 132 139 127 119 133 145 132 143 165 166 186 159 165 157 161 162 177 175 169 170 166 165 154 155 163 173 177 172 164 170 171 167 156 158 155 151 143 140 146 158 169 180 163 160 160 155 159 184 189 201 185 192 206 206 222 225 225 230 218 223 230 219
204 262 240 221 247 227 227 248 251 232 231 257 160 146 193 177 144 180 112 198 141 128 208 124 164 102 52 89 103 121 128 133 138 140 130 138 131 122 130 143 161 141 148 167 175 193 182 167 164 154 168 180 175 172 166 170 170 159 159 167 171 177 177 162 162 169 163 163 163 169 161 167 168 173 173 178 180 171 183 175 168 166 176 188 188 201 207 210 216 220 229 227 228 231 182 133 153
153 208 215 237 228 228 219 240 243 267 271 215 184 159 202 195 147 172 39 167 235 143 210 124 108 74 113 108 109 119 129 141 149 143 146 147 153 147 159 172 157 165 157 174 191 184 195 179 175 161 169 179 172 176 167 168 167 168 168 165 170 177 182 172 168 173 180 172 178 171 177 191 204 197 188 184 177 182 183 175 176 176 180 187 187 204 218 221 216 216 225 229 227 234 156 176 191
191 196 215 233 218 237 239 248 252 259 246 269 190 168 218 227 154 152 173 203 197 188 195 149 134 105 105 123 121 133 141 151 155 156 155 162 168 167 170 171 175 160 173 173 200 189 188 188 179 177 167 170 171 170 169 156 162 176 174 170 173 176 182 188 182 186 186 188 180 183 192 202 206 219 184 184 174 177 177 181 177 182 182 184 184 181 177 197 217 221 224 229 233 194 168 209 210
206 216 221 230 236 256 249 240 254 257 273 356 321 162 192 269 170 132 194 191 191 215 182 186 176 153 149 142 144 146 160 159 169 166 167 169 175 171 170 173 181 180 172 175 185 195 178 189 191 186 168 169 171 168 172 158 161 170 178 176 177 176 183 188 199 192 194 197 188 188 192 211 208 212 166 164 147 158 173 174 177 178 183 177 185 189 208 202 205 214 213 214 221 197 207 214 228
178 220 227 230 212 229 241 266 272 276 339 259 308 343 16 311 300 136 187 218 207 205 210 197 197 173 161 158 156 158 165 165 181 180 175 175 185 175 176 177 182 178 165 166 175 196 184 180 190 193 174 170 175 172 165 181 165 175 177 178 177 173 183 183 196 197 199 198 196 183 199 207 208 174 147 146 163 147 152 165 165 179 184 196 183 203 203 212 212 204 214 213 209 211 213 223 227
262 225 228 237 253 257 244 231 27 5 42 22 297 304 210 281 283 261 193 210 220 223 211 205 195 190 157 163 164 164 167 171 184 184 186 181 188 178 175 168 171 169 156 172 180 183 190 184 179 193 181 173 175 178 173 175 186 188 172 175 184 177 180 185 191 196 194 199 197 195 196 205 192 190 162 162 177 175 159 171 181 182 183 196 180 204 208 217 199 202 206 210 211 214 217 223 220
241 248 248 234 235 251 259 247 50 1 332 257 263 263 283 245 273 209 262 238 226 97 65 36 4 225 166 164 157 165 168 176 184 189 187 187 189 185 181 171 170 176 171 174 171 180 185 187 180 182 192 177 176 178 174 174 188 195 179 174 181 193 176 182 190 192 191 189 189 196 198 194 189 190 192 172 180 189 186 172 183 187 194 189 183 189 207 214 191 199 209 197 196 209 222 215 195
245 249 235 244 251 251 270 271 108 280 302 274 285 333 317 265 248 162 224 232 263 67 73 47 2 7 135 150 164 168 173 177 187 189 191 191 186 190 185 175 170 167 165 173 175 178 181 184 182 183 189 185 177 181 187 177 183 199 188 181 186 190 183 181 185 191 190 189 185 189 197 195 188 190 191 190 188 186 198 185 177 180 180 175 171 192 198 193 209 213 204 216 214 218 223 243 240
238 238 245 285 293 261 246 261 147 146 253 288 301 285 244 258 266 273 238 236 223 237 105 103 83 66 126 145 164 171 172 175 181 185 189 194 187 191 192 178 166 163 170 181 176 177 175 177 180 189 192 187 178 183 195 176 177 192 194 188 190 193 192 193 186 185 192 187 181 186 184 195 199 188 191 193 185 188 194 189 183 186 174 180 186 218 196 195 196 202 211 215 220 234 227 229 226
241 257 259 264 267 275 263 272 283 211 236 246 257 246 253 256 275 259 257 256 262 246 235 120 122 187 189 156 175 171 178 178 177 177 189 187 181 183 193 189 171 172 176 179 175 179 168 174 181 186 190 189 183 181 191 184 176 181 193 199 189 188 198 198 194 191 190 187 188 187 183 188 198 194 192 195 184 189 192 191 186 187 182 183 177 201 213 193 202 225 237 217 207 214 215 221 209
55 314 265 251 249 259 251 240 247 246 232 221 236 237 240 228 221 249 221 234 255 267 258 186 166 178 200 199 175 181 179 181 180 178 168 181 186 185 187 190 190 176 168 180 179 176 166 173 182 185 190 185 183 187 187 197 180 181 188 195 191 184 191 204 213 194 189 191 196 185 185 187 196 202 196 194 189 186 189 188 191 181 187 187 181 188 190 193 194 206 222 229 229 228 228 228 226
286 314 311 289 296 286 285 264 232 235 232 218 228 245 242 237 222 234 225 195 217 242 250 246 191 198 200 203 204 185 184 181 177 168 176 178 188 185 182 188 192 178 173 178 177 174 167 178 180 185 189 184 185 187 184 195 194 187 180 187 196 185 177 192 215 217 198 190 189 194 189 185 189 204 201 199 202 195 185 186 189 189 196 193 182 181 186 188 191 204 219 224 223 220 226 228 218
266 271 267 267 262 258 245 244 238 209 239 198 214 263 247 222 233 228 225 239 218 214 230 242 217 200 206 207 202 197 190 184 169 177 183 186 185 182 187 185 181 188 180 170 169 176 181 176 179 184 187 184 188 189 188 190 195 193 184 185 190 188 181 183 197 212 214 196 188 190 191 184 186 197 202 199 196 200 196 197 197 197 197 198 186 178 181 187 187 195 215 215 234 256 258 267 284
281 258 264 283 264 260 234 229 224 221 216 203 160 246 230 223 228 225 222 203 241 255 230 219 228 205 204 200 201 195 190 193 183 178 184 182 179 184 189 180 178 183 176 171 166 179 179 176 178 179 186 185 190 193 189 188 196 197 189 181 185 188 188 185 190 195 201 203 195 194 189 190 187 194 195 202 196 195 197 197 195 197 196 195 185 181 185 183 182 185 199 200 221 226 235 239 247
240 247 228 234 256 250 217 212 202 221 189 205 187 242 250 217 207 218 209 204 206 229 238 234 231 218 204 195 199 200 194 186 196 183 181 181 179 180 187 176 173 177 171 171 180 178 174 176 177 183 181 185 186 197 194 190 192 196 194 189 185 180 184 191 196 193 194 199 195 197 192 191 193 192 196 200 206 200 201 202 195 194 192 188 179 180 177 187 185 189 185 202 214 216 215 219 222
217 261 226 223 230 258 258 211 192 203 182 195 188 246 256 248 257 208 203 205 203 214 216 213 219 229 219 209 197 201 204 185 191 197 185 188 181 179 180 181 174 177 177 178 179 168 177 177 177 180 178 185 188 195 200 194 191 194 193 192 188 180 181 189 193 196 201 204 198 194 196 196 194 194 191 194 196 196 197 199 199 191 197 192 195 194 183 186 187 190 194 188 208 223 209 222 216
222 223 242 218 209 248 261 234 178 192 182 194 192 227 140 215 222 241 225 198 206 210 218 219 213 214 220 221 205 203 210 209 192 195 190 184 192 179 178 184 178 178 178 173 173 173 176 174 177 179 179 188 186 192 198 204 197 191 192 194 193 183 187 190 190 187 193 206 204 197 193 193 198 197 197 195 190 191 191 192 195 191 195 196 199 200 189 189 178 182 199 200 197 225 224 224 220
225 210 239 246 238 199 238 156 178 179 195 196 208 227 231 307 53 255 243 205 195 208 213 220 221 219 216 226 218 206 206 211 207 196 195 188 185 182 178 184 183 174 176 175 171 175 179 174 177 184 179 187 186 187 194 199 203 191 190 194 195 189 193 193 191 187 192 198 205 200 192 191 192 192 193 198 193 193 193 191 196 197 195 195 198 196 199 186 189 190 210 205 203 212 222 225 234
220 202 228 237 254 262 250 172 178 190 203 219 206 227 240 243 269 238 329 309 251 212 207 212 217 217 217 222 225 221 213 210 212 206 200 195 188 180 177 179 184 181 176 177 175 173 179 174 174 184 180 183 188 185 188 192 197 199 193 194 197 198 190 197 193 194 194 193 198 196 190 190 187 187 190 192 193 196 202 199 196 201 200 199 195 198 201 196 193 195 198 204 202 206 210 220 233
215 232 251 234 226 224 241 196 168 186 199 222 226 228 225 235 244 258 247 198 224 263 264 240 236 235 232 228 226 225 223 220 209 206 208 199 184 174 177 180 185 184 182 183 185 180 178 180 173 181 187 183 185 182 174 184 187 194 198 199 200 203 200 196 199 199 193 199 195 190 191 188 181 185 190 193 191 192 198 200 198 201 199 191 193 196 199 191 191 198 203 193 203 218 212 212 214
282 286 262 274 243 239 239 198 204 186 211 219 227 243 257 243 227 218 232 230 205 216 231 237 235 237 246 245 231 229 229 227 196 178 167 175 181 183 177 180 185 186 186 183 186 190 188 185 178 184 188 184 181 182 179 180 187 193 200 201 205 200 201 196 199 199 198 200 195 192 191 190 188 185 188 190 197 193 193 194 204 216 207 202 201 206 196 201 201 208 214 198 209 224 232 210 223
261 278 292 300 289 247 242 299 150 173 182 244 220 241 247 250 255 258 244 224 228 214 209 219 224 222 224 231 238 236 235 255 253 236 215 214 212 198 182 182 184 188 198 192 190 191 191 190 189 188 180 186 189 188 187 189 191 191 191 199 198 196 194 195 201 198 199 196 195 195 191 188 193 190 186 183 188 192 196 198 205 210 207 209 206 199 194 198 201 202 195 206 203 215 228 197 209
242 253 266 270 267 302 284 89 155 101 335 275 274 264 248 238 230 227 232 241 236 229 225 215 209 214 220 218 220 227 230 235 233 224 209 207 207 211 199 196 199 196 194 194 195 193 190 189 192 189 183 186 194 192 189 195 195 195 194 197 191 197 201 200 201 194 186 190 198 198 190 189 192 195 182 184 183 193 200 202 211 203 201 196 199 202 196 208 206 206 196 196 196 209 220 207 204
237 233 240 243 262 253 250 213 158 183 191 289 348 310 281 286 283 268 244 232 230 227 230 230 220 211 209 211 207 209 215 217 218 214 215 213 209 202 203 205 205 201 196 194 195 198 196 193 193 193 194 191 193 196 197 198 194 192 195 185 188 187 187 183 185 182 184 185 200 203 202 188 187 195 191 187 191 195 201 204 208 209 204 196 203 210 212 223 222 223 220 213 203 226 207 219 199
225 232 248 251 237 248 264 3 8 8 327 358 320 289 275 236 247 249 258 256 256 251 244 233 226 218 206 204 218 221 222 214 219 220 218 216 218 211 202 205 201 199 203 205 201 200 201 199 199 197 196 196 195 196 197 192 177 177 181 184 172 185 149 162 168 196 193 192 195 201 206 190 189 192 199 198 194 198 203 208 206 207 205 205 202 206 206 208 208 210 208 211 209 215 226 215 207
238 228 232 251 271 278 245 146 172 225 276 199 157 298 263 217 221 230 225 233 236 226 227 234 224 214 201 208 216 220 225 215 205 217 218 217 219 222 213 199 195 196 201 208 208 209 204 204 203 202 201 199 200 197 193 184 178 178 173 180 184 184 186 175 190 196 194 194 201 195 191 191 191 193 197 200 195 195 204 208 207 203 203 204 203 206 206 200 204 204 206 208 213 206 212 215 229
239 216 214 231 246 259 272 259 135 254 232 274 163 209 279 251 274 226 220 229 238 224 210 218 215 211 202 209 211 213 218 225 232 231 228 215 209 212 215 194 192 194 204 200 206 214 218 215 209 203 201 202 199 193 186 182 180 183 185 189 190 189 191 202 201 197 192 200 191 190 191 189 193 194 197 199 196 194 198 206 209 209 207 205 201 199 206 208 206 211 203 207 208 197 197 220 218
239 221 265 273 228 224 235 234 223 246 29 319 55 22 276 278 238 260 282 273 248 240 220 211 212 209 204 207 208 216 219 222 222 227 235 229 222 216 215 200 191 198 200 198 204 208 214 220 215 209 203 200 195 185 181 182 184 185 187 191 193 194 197 202 195 187 180 175 186 195 184 187 191 194 195 200 200 194 195 200 208 210 210 211 200 203 202 201 205 204 203 206 209 199 197 209 217
221 118 1 257 261 216 215 163 239 225 313 257 231 169 293 254 235 223 239 259 268 270 254 221 203 200 201 203 209 218 222 222 218 219 224 222 216 221 222 218 211 204 201 202 204 204 208 214 219 216 209 198 191 181 179 184 185 186 188 187 191 201 199 200 181 179 178 175 186 189 191 189 188 192 192 194 198 197 193 198 200 206 209 214 209 207 202 203 208 203 198 200 202 207 206 203 208
222 197 170 330 5 39 129 159 193 253 214 247 230 188 236 265 239 178 214 231 236 245 252 214 187 186 192 198 210 217 222 225 218 216 216 214 208 211 213 217 220 216 207 202 202 201 203 203 211 211 212 196 186 179 178 184 187 183 186 189 190 194 192 195 184 186 191 184 188 187 189 189 187 187 190 193 195 196 190 193 198 202 206 211 210 210 204 205 207 206 203 200 200 211 206 207 214
193 195 155 163 55 81 15 175 149 207 233 234 226 208 209 270 243 198 208 221 220 229 239 228 200 197 199 203 205 212 220 211 206 208 209 207 202 197 192 199 212 225 219 205 205 201 198 197 202 207 206 196 186 183 179 185 187 187 190 189 190 191 193 189 191 190 186 183 185 186 186 190 184 186 185 193 195 190 188 188 194 199 200 202 203 204 209 207 205 205 209 211 212 209 211 213 215
153 156 174 182 223 147 195 206 196 222 246 231 224 213 209 240 259 200 237 269 223 208 223 227 214 197 203 200 204 215 214 208 196 193 206 192 181 192 185 202 217 226 226 222 212 199 191 188 188 203 212 198 186 181 181 185 188 193 194 191 192 194 188 189 192 193 184 183 182 180 177 175 182 180 183 190 199 193 181 188 194 193 195 195 199 200 199 203 202 204 211 216 222 220 216 217 221
187 179 176 202 204 174 224 171 207 211 234 226 213 196 234 231 254 239 281 224 237 233 213 218 214 207 185 187 203 213 214 206 198 189 172 175 183 190 196 210 218 223 221 220 211 196 188 184 188 196 216 211 196 179 184 185 188 195 196 195 197 193 192 192 194 194 185 182 179 174 173 182 176 178 186 191 197 197 193 185 188 191 187 192 193 194 196 192 200 200 205 208 212 216 217 221 229
213 196 191 196 206 205 226 205 225 252 245 247 236 188 234 239 259 235 232 240 263 292 258 208 215 185 172 189 201 203 210 207 201 186 177 181 183 188 194 201 209 219 222 219 213 198 198 201 202 202 214 206 202 192 187 190 193 195 199 200 197 189 194 193 195 193 186 181 177 178 179 181 181 183 181 189 188 190 192 194 188 188 186 188 191 188 190 195 196 200 197 207 211 212 206 209 216
206 211 201 204 205 201 228 210 221 218 240 220 196 220 231 163 227 155 216 222 217 238 228 236 242 217 194 188 183 199 198 200 184 179 179 177 182 184 191 196 199 204 209 210 209 199 190 202 201 204 206 208 196 197 192 193 196 196 197 200 198 191 191 193 195 188 179 173 174 171 176 177 179 180 177 176 172 183 191 184 183 185 188 190 188 196 193 187 192 192 196 203 213 209 211 211 213
253 231 206 228 221 207 236 213 221 226 240 230 181 211 201 226 293 273 259 234 210 214 219 206 222 236 245 258 242 193 186 188 190 191 194 194 189 189 191 197 192 183 188 193 197 191 188 200 203 209 205 207 198 192 195 195 197 195 193 191 196 192 189 186 182 178 174 166 168 171 176 179 178 173 168 165 171 175 181 182 176 179 177 185 186 188 189 196 196 200 204 206 220 204 211 214 220
189 195 224 217 216 229 269 267 249 308 281 242 190 226 271 313 283 275 291 311 16 219 214 218 220 218 223 234 233 205 192 196 199 200 200 197 191 189 187 189 184 177 180 189 195 188 191 195 198 211 216 215 201 195 194 194 193 189 195 191 187 185 180 181 177 173 168 165 161 169 172 170 159 158 155 154 150 144 151 156 158 162 163 167 174 178 180 185 193 201 206 211 220 221 213 220 213
168 218 218 235 253 71 196 244 224 223 239 250 219 236 221 187 275 192 235 230 197 218 210 211 219 211 214 217 216 212 219 220 209 201 195 189 189 188 189 194 189 182 181 186 195 193 192 198 194 195 200 197 202 188 189 187 189 190 188 187 185 180 174 171 166 168 161 152 154 142 132 135 128 115 120 119 120 115 105 107 133 150 154 146 151 154 154 164 168 182 196 203 205 199 207 218 212
221 208 162 205 197 256 153 248 224 226 230 240 231 245 243 204 234 44 205 225 216 206 209 215 213 206 209 216 221 225 232 234 225 206 192 194 192 191 189 195 203 190 173 175 171 160 169 186 198 190 191 185 181 177 164 147 159 171 175 178 173 168 163 162 157 156 143 147 150 141 133 127 108 114 111 109 110 104 100 94 89 94 112 131 136 146 154 177 177 197 213 215 239 207 212 224 228
299 24 284 129 93 261 228 196 268 249 248 240 246 202 240 220 244 238 233 223 217 207 198 210 216 206 202 207 221 227 222 212 210 198 197 198 200 194 185 182 184 175 155 142 141 143 161 177 181 200 168 155 153 155 153 149 126 119 110 106 117 132 140 151 149 144 139 141 146 139 126 116 124 113 110 108 109 110 112 122 120 122 121 121 130 131 122 125 134 164 178 200 237 218 214 219 242
241 273 250 214 210 178 281 286 233 224 238 232 255 245 203 215 221 251 252 251 248 202 203 200 202 207 205 208 214 221 218 209 207 202 199 202 201 195 191 177 163 140 132 138 147 160 170 157 170 159 151 148 148 156 146 148 136 133 130 131 124 115 115 109 109 122 119 116 111 108 110 120 108 102 114 114 119 132 138 147 150 148 148 151 152 151 135 135 133 154 207 168 62 66 126 206 167
237 241 221 213 218 216 231 255 210 236 246 237 237 247 261 260 174 215 229 234 234 227 219 201 199 201 205 211 219 211 218 210 196 196 197 202 197 184 165 136 125 135 151 158 166 152 154 164 171 161 157 167 164 168 153 146 142 144 143 137 125 112 114 111 112 107 106 105 104 107 113 103 105 111 115 123 130 140 145 148 152 152 148 144 135 118 104 100 129 157 107 91 67 61 53 31 52